Helicity
102 98 102 97 84 92 104 122 96 104 129 136 104 69 80 85 47 39 40 175 160 132 99 93 80 68 82 92 98 95 89 73 61 37 24 36 26 18 11 6 37 51 62
101 120 133 131 121 112 112 120 129 147 93 127 144 129 140 96 82 82 42 129 149 135 106 90 93 73 69 97 98 96 84 75 58 54 36 43 41 30 41 60 58 57 68
92 99 116 138 146 152 125 112 116 119 135 112 133 148 181 150 98 99 106 62 137 126 141 99 97 91 95 87 93 92 91 86 70 57 63 48 61 63 73 76 66 67 62
121 116 136 139 153 200 212 205 173 151 143 148 120 121 154 195 146 102 114 120 80 128 119 132 99 100 106 87 84 85 87 70 89 76 77 82 79 87 73 78 66 64 59
86 99 120 157 199 193 217 208 214 236 155 149 151 135 119 150 181 178 122 136 136 77 151 123 137 90 112 113 87 83 75 79 73 82 79 90 92 97 99 74 61 51 57
109 151 106 120 147 165 199 218 208 218 215 162 147 151 131 129 142 200 209 142 170 109 114 148 131 140 117 109 106 89 84 73 78 76 93 95 103 102 99 87 77 60 50
111 103 119 135 133 163 194 258 322 335 208 159 133 139 146 107 149 141 241 222 171 140 153 104 181 171 160 136 122 99 78 74 74 82 84 103 103 99 98 93 81 74 69
97 114 137 124 157 146 178 190 220 249 293 221 217 179 210 154 140 140 139 214 176 154 182 146 118 143 147 200 148 114 94 74 69 74 87 97 109 103 87 83 84 79 76
132 126 130 116 114 143 158 171 160 177 191 266 261 192 232 253 220 141 127 199 320 270 250 155 164 132 159 145 180 185 157 97 59 71 76 98 101 108 102 84 77 82 86
147 161 146 145 116 104 109 116 128 159 180 175 208 243 206 244 256 188 169 157 222 288 300 184 167 162 163 171 132 200 204 155 97 67 67 91 97 94 109 100 92 87 87
170 160 149 162 134 132 115 114 112 100 133 167 182 206 217 244 171 250 212 211 278 251 277 286 113 139 134 156 158 209 231 198 164 121 93 92 86 90 94 106 105 100 98
131 148 156 141 131 107 90 79 93 100 77 94 123 140 189 245 270 197 211 180 203 198 224 249 196 127 161 165 174 170 203 218 171 158 127 120 117 103 93 104 114 109 105
98 147 138 118 111 102 85 83 88 91 103 102 95 118 114 143 184 171 166 250 196 261 252 202 187 138 172 174 180 144 196 228 203 157 148 137 144 141 132 116 111 109 113
34 47 105 144 106 110 110 117 100 91 76 71 76 107 101 91 89 133 149 185 226 241 276 303 280 126 113 106 179 165 146 157 197 169 159 162 159 142 151 148 132 120 116
-24 -32 38 142 139 141 147 130 128 140 135 209 183 258 162 101 84 81 81 165 209 304 225 88 180 277 185 329 355 277 365 314 283 230 177 137 133 114 101 95 115 130 125
-81 -55 -16 76 99 131 158 148 185 248 256 294 323 268 317 250 236 162 212 258 151 138 111 115 439 509 563 528 609 523 450 595 570 539 446 364 283 259 224 200 163 164 144
-90 -120 -111 -30 101 148 175 179 201 290 343 443 379 431 383 339 233 223 273 329 321 235 159 247 375 534 585 688 666 703 626 464 630 679 613 549 491 536 523 507 480 441 412
-41 -65 -104 -82 -24 66 132 204 251 276 414 527 511 478 478 350 355 308 310 336 300 335 222 342 432 748 674 503 683 497 699 540 552 644 684 611 413 430 514 604 672 661 573
26 -5 -9 -41 -49 -18 56 83 -23 101 256 479 663 630 518 398 383 471 388 377 351 352 500 424 227 311 510 723 603 475 656 769 659 649 707 667 517 474 460 482 584 650 641
23 21 20 29 28 4 -9 -81 -40 -5 69 189 372 603 574 579 443 452 275 430 439 485 548 673 702 550 471 485 522 554 475 237 854 947 751 763 562 514 451 441 494 576 597
12 6 4 17 31 54 43 -10 -5 17 16 13 76 194 390 305 380 470 491 437 348 379 579 541 423 730 727 616 566 651 417 407 182 425 473 643 693 515 486 456 386 490 524
19 19 24 21 19 36 44 54 29 36 75 91 80 67 81 128 133 168 150 308 326 369 428 416 414 424 644 624 454 388 471 330 445 276 416 176 241 222 437 290 316 352 455
33 34 36 35 31 25 49 30 37 23 59 82 118 133 118 137 125 73 109 126 183 191 172 90 163 163 225 242 191 197 266 181 96 124 74 16 88 109 126 103 46 245 309
35 33 31 31 30 49 67 34 12 0 9 44 95 104 113 132 156 92 60 77 107 117 122 102 80 90 123 159 159 114 116 81 66 86 134 74 99 114 138 142 162 177 211
18 18 19 35 48 55 83 71 0 7 8 21 21 59 67 89 121 102 60 66 76 79 70 92 89 99 112 139 130 96 158 123 78 59 111 82 115 168 136 135 159 288 217
1 -8 1 14 43 52 107 105 50 0 12 3 10 26 85 75 96 96 31 8 10 -1 -23 -7 10 22 41 49 87 84 85 57 69 13 19 24 44 33 52 113 168 99 110
Wind_Speed
67 66 63 60 58 59 57 60 52 43 43 45 49 42 45 45 48 51 46 21 21 19 16 13 12 12 12 11 9 8 7 5 12 21 24 23 27 30 26 18 7 10 6
70 70 68 67 65 62 62 63 65 68 52 45 46 51 55 48 50 50 51 32 26 23 21 18 15 15 14 14 13 12 10 7 12 18 22 23 25 24 17 14 8 8 5
72 73 72 70 70 69 70 67 67 72 73 58 51 51 54 58 53 47 49 53 34 27 26 24 21 19 18 17 16 16 14 11 11 13 14 15 20 22 16 12 7 6 5
76 79 78 77 77 80 77 73 73 69 73 71 61 54 54 57 59 51 51 51 51 35 31 30 28 25 22 20 19 19 18 16 15 15 14 15 17 17 17 13 10 9 9
79 80 80 82 83 84 82 79 76 76 72 78 77 69 58 56 61 60 54 49 55 57 35 32 34 34 29 25 23 22 22 21 19 17 17 17 18 17 17 16 14 12 8
80 82 80 79 80 81 83 80 85 77 79 75 77 82 71 60 60 63 57 55 51 58 62 38 34 38 36 32 29 26 25 25 24 22 20 21 20 20 19 18 17 15 11
85 83 79 79 81 85 82 84 87 89 81 75 77 84 84 72 67 67 64 58 58 50 56 64 43 41 41 40 36 32 28 28 29 27 24 24 24 23 21 21 21 20 16
84 82 83 85 84 86 82 81 83 86 86 76 78 76 86 80 76 72 70 59 59 54 51 59 61 50 46 44 46 39 34 32 31 30 28 28 27 25 23 22 22 22 23
82 83 82 81 82 82 82 80 78 79 87 83 79 71 77 88 71 57 72 72 61 56 50 56 62 65 51 50 46 45 40 37 35 33 31 29 29 28 27 25 23 23 24
80 80 79 79 80 78 81 79 78 76 78 85 80 81 80 77 70 82 74 78 74 59 57 60 54 68 68 62 56 47 44 43 40 37 34 31 30 31 28 28 26 26 26
79 79 78 79 76 74 73 73 74 73 75 81 85 82 86 79 83 82 77 67 70 66 59 60 54 77 73 69 74 64 48 44 46 43 39 35 32 31 29 29 28 27 27
76 76 80 77 77 76 76 78 80 81 77 76 79 84 86 85 78 81 89 75 69 70 67 63 61 62 81 76 72 68 63 50 47 47 46 43 39 35 33 31 31 30 29
78 79 79 78 75 74 74 73 71 76 75 75 78 77 79 87 85 80 75 79 71 66 68 71 68 66 69 82 79 72 67 62 57 53 50 48 45 42 39 37 35 34 33
77 77 75 75 72 70 69 66 64 68 70 72 71 72 76 81 82 83 75 71 83 79 75 70 69 63 68 77 80 80 73 70 64 60 55 53 54 50 47 42 40 39 38
75 75 73 73 71 68 67 64 63 65 61 59 60 61 70 79 78 78 77 55 64 68 70 67 55 47 50 45 55 56 51 55 63 65 68 67 60 59 59 55 52 49 50
77 76 75 71 70 67 65 61 62 62 57 54 54 52 53 56 55 59 55 64 72 87 91 84 55 53 48 39 39 40 38 38 42 44 48 54 61 61 62 63 66 66 68
75 77 77 76 73 71 67 64 60 61 56 53 49 46 46 48 46 47 54 53 59 66 82 58 51 52 47 44 40 38 37 35 37 40 42 43 44 45 45 47 51 55 57
71 74 75 74 76 73 71 68 66 64 59 51 49 40 36 39 36 36 45 46 52 58 60 54 36 44 40 35 36 38 40 34 29 31 33 32 31 33 36 39 43 45 49
73 73 72 74 75 77 75 67 69 65 64 58 45 44 29 26 28 29 30 30 34 38 37 44 46 40 38 35 35 41 35 36 37 34 33 37 33 34 36 40 42 44 48
71 73 74 72 75 78 76 72 65 62 65 55 46 40 34 30 23 25 27 29 27 29 26 32 39 38 40 44 37 49 49 43 53 44 42 39 40 40 44 46 49 51 52
66 68 70 71 72 75 78 74 68 63 66 62 51 44 36 38 39 38 28 29 26 26 30 31 36 41 37 37 39 42 43 41 41 43 46 46 51 48 52 50 55 57 58
61 62 64 66 67 67 71 72 65 60 68 67 56 43 41 46 42 42 40 41 36 30 31 31 31 40 39 39 43 47 50 53 62 56 57 47 42 52 57 56 52 61 59
58 59 60 61 63 62 62 61 60 59 60 63 55 51 47 44 44 42 45 46 45 41 36 25 25 33 34 41 40 41 42 45 44 49 52 47 52 58 63 61 55 61 62
53 55 57 59 60 64 63 62 63 63 59 56 54 50 49 46 43 41 39 40 37 38 38 37 30 35 37 40 40 40 39 40 38 41 49 53 57 62 60 52 52 62 72
50 53 55 57 59 62 66 62 60 62 61 62 59 62 57 52 53 49 43 39 41 43 50 43 39 38 38 42 43 42 43 46 47 44 51 54 58 63 57 58 60 69 73
47 49 51 54 58 59 66 67 63 59 59 58 57 58 60 60 59 57 51 48 48 49 47 48 49 49 51 51 52 50 50 51 54 51 56 58 61 63 62 54 70 68 72
Wind_Direction
320 319 317 315 311 305 301 299 294 285 279 277 278 278 282 286 287 289 292 281 281 273 260 251 242 233 236 240 231 204 192 168 148 149 152 152 154 155 152 148 160 148 164
320 318 316 312 309 306 301 296 293 292 286 276 274 275 281 281 281 282 285 286 279 270 259 251 237 229 230 233 227 218 216 216 172 166 163 160 159 158 154 154 170 164 196
320 318 315 312 308 305 301 296 292 287 287 282 273 270 273 276 279 278 277 281 280 267 253 249 244 231 237 239 228 222 223 237 213 193 184 174 166 164 166 168 211 223 207
318 316 313 310 308 303 300 297 293 289 282 285 277 272 266 269 273 271 274 274 277 275 262 247 245 242 242 237 232 221 228 234 227 212 209 191 181 176 176 188 214 243 268
316 314 311 308 306 302 298 295 292 288 286 279 281 278 271 264 267 271 266 269 269 274 269 251 242 250 248 239 234 230 229 229 230 224 219 205 197 197 195 196 197 201 248
316 315 312 309 306 302 297 294 290 288 285 284 278 277 277 267 264 264 264 263 263 265 269 266 252 248 247 248 240 239 234 228 222 225 221 213 206 201 200 206 208 208 216
315 315 313 310 305 299 298 294 292 288 284 282 280 276 272 273 264 260 263 259 259 257 261 265 264 261 254 245 248 242 236 228 223 224 223 219 212 205 204 205 207 208 214
317 315 312 308 305 302 300 295 290 287 287 283 279 280 272 272 267 260 258 254 250 254 253 260 263 262 261 256 251 246 244 240 234 231 227 221 217 218 216 212 212 210 206
319 317 314 311 307 302 299 297 292 286 281 283 278 275 273 268 272 269 259 253 262 250 260 259 259 264 258 261 255 247 239 239 232 230 226 224 221 221 222 224 225 223 219
322 322 319 315 311 306 300 295 290 289 284 278 280 273 274 273 275 271 268 265 257 259 258 259 266 258 259 261 260 250 245 237 238 236 235 230 221 218 219 222 226 227 225
325 324 322 319 316 312 307 301 295 288 283 281 275 276 271 273 266 269 273 266 260 257 255 255 259 259 258 258 258 258 249 236 233 235 235 233 229 227 223 224 224 225 230
330 329 325 321 314 311 305 298 291 287 284 280 277 274 272 269 268 265 265 267 262 259 257 260 256 255 258 258 257 257 253 242 237 233 234 236 235 232 233 233 233 234 232
333 329 327 322 319 314 307 306 303 294 289 283 279 276 273 270 268 268 264 264 265 262 260 259 259 259 256 256 256 254 253 248 246 245 239 240 243 243 241 240 245 244 243
340 336 330 329 328 318 315 317 313 305 299 291 284 274 274 270 268 266 265 264 261 262 263 262 267 259 256 256 256 254 254 252 248 250 251 249 253 254 255 250 248 251 252
346 344 342 337 336 331 330 327 325 319 312 305 295 289 277 271 268 267 264 258 258 258 259 260 258 272 265 260 265 259 258 258 256 258 260 262 262 264 265 266 267 268 269
357 354 352 348 350 344 343 340 339 330 322 315 305 297 286 280 274 268 281 265 263 258 256 253 261 261 269 273 275 267 265 262 263 264 265 267 267 267 269 270 271 273 274
2 3 3 2 0 358 358 354 347 350 343 335 327 309 295 284 275 273 273 277 271 268 258 267 265 270 270 268 274 274 274 270 270 273 274 273 271 272 273 275 276 277 279
5 6 8 7 8 7 8 2 360 359 356 351 346 330 310 293 281 284 276 279 278 278 267 253 274 268 271 270 270 276 276 280 278 279 280 284 282 282 279 280 282 283 286
13 10 10 9 7 11 14 7 10 9 8 5 357 353 330 326 306 292 292 293 296 293 284 256 260 274 279 283 279 282 287 283 293 288 282 284 286 286 289 286 288 290 290
20 20 17 12 14 15 18 17 9 10 12 13 5 4 4 358 339 323 322 311 311 309 308 282 274 275 282 281 290 275 285 289 293 291 283 283 285 287 290 291 290 291 292
16 18 21 19 17 20 23 22 16 13 16 17 13 12 8 7 15 8 347 334 345 326 309 301 292 283 284 295 290 301 292 290 290 308 285 284 284 287 289 289 293 292 293
9 10 11 14 15 12 14 20 16 13 20 21 15 10 7 11 12 14 12 13 5 346 329 311 301 296 305 304 301 296 301 288 281 292 294 283 303 287 293 288 298 297 297
10 7 7 8 10 6 4 8 13 14 16 17 13 11 11 6 6 10 10 16 16 13 7 338 333 318 324 315 315 314 314 298 293 298 293 290 296 292 298 294 293 297 299
6 6 5 6 8 6 3 7 16 18 14 11 10 7 7 4 1 1 4 7 4 5 1 356 351 343 341 331 323 323 320 309 311 315 314 296 304 295 299 293 296 304 303
4 4 4 4 3 5 4 1 10 14 13 13 9 10 6 1 0 360 358 355 356 357 11 0 353 345 338 336 332 325 320 315 309 312 320 309 309 305 301 295 302 305 306
359 2 360 1 1 360 1 3 3 4 5 3 1 2 1 2 1 2 359 355 355 353 351 356 356 356 355 349 342 337 329 320 313 307 320 312 310 312 301 304 307 307 306